TV
NORAD ID: 25585
Int'l Code: 1998-075A
Perigee: 36,010.4 km
Apogee: 36,209.9 km
Inclination: 4.6 °
Period: 1,452.3 minutes
Semi major axis: 42481 km
Launch date: December 22, 1998
Source: United States (US)
Comments: voice and video communcations; 32 Ku-band; South America.
Two Line Element Set (TLE):
1 25585U 98075A 13165.03791334 .00000000 00000-0 10000-3 0 1491
2 25585 004.6461 063.7509 0023477 040.5498 319.4106 00.99153595 52895
Source: AFSPC
NASA's NSSDC Master Catalog entry for INTELSAT 6B (PAS 6B)